KC1RCJ Weather Reports


time (UTC)temp
F
wind
direction
speed
knots
gust
knots
rain 1hr
in
rain 24hr
in
rain mn
in
humidity
%
barometer
mb
20260507134528 51 360 4.3 8.7 0.00 0.96 0.24 76 1004.8
20260507133027 51 331 7.0 11.3 0.00 0.96 0.24 77 1005.2
20260507131538 50 294 8.7 12.2 0.00 0.96 0.24 79 1005.3
20260507130040 50 330 8.7 13.0 0.00 0.96 0.24 80 1005.0
20260507124530 49 325 4.3 9.6 0.00 0.96 0.24 83 1005.0
20260507123030 49 294 7.8 13.0 0.00 0.96 0.24 84 1004.8
20260507121530 48 313 7.0 8.7 0.00 0.96 0.24 86 1004.8
20260507120030 48 323 3.5 7.8 0.00 0.96 0.24 86 1004.8
20260507114531 47 291 3.5 7.0 0.00 0.96 0.24 89 1005.4
20260507113030 47 294 3.5 7.0 0.00 0.96 0.24 88 1005.7
20260507111530 47 271 3.5 9.6 0.00 0.96 0.24 87 1005.9
20260507110030 47 287 7.0 11.3 0.00 0.96 0.24 86 1005.6
20260507104531 47 284 7.0 12.2 0.00 0.96 0.24 87 1005.6
20260507103031 46 295 7.0 12.2 0.00 0.96 0.24 88 1004.8
20260507101528 47 269 7.8 13.9 0.00 0.96 0.24 88 1004.6
20260507100036 47 317 8.7 13.0 0.00 0.96 0.24 88 1004.2
20260507094528 47 294 8.7 13.0 0.00 0.96 0.24 90 1004.1
20260507093028 47 320 11.3 15.6 0.00 0.96 0.24 89 1004.0
20260507091535 47 310 9.6 13.9 0.00 0.96 0.24 89 1004.6
20260507090028 47 294 9.6 15.6 0.00 0.96 0.24 91 1004.5
20260507084530 48 283 7.0 12.2 0.00 0.96 0.24 93 1004.2
20260507083028 48 312 7.8 11.3 0.00 0.96 0.24 92 1003.9
20260507081530 48 306 8.7 13.9 0.00 0.96 0.24 92 1003.7
20260507080031 48 309 11.3 16.5 0.01 0.96 0.24 92 1003.9
20260507074528 48 306 7.0 12.2 0.01 0.96 0.24 93 1003.7
20260507073031 48 297 7.8 13.0 0.01 0.96 0.24 93 1003.6
20260507071533 49 300 10.4 17.4 0.01 0.96 0.24 94 1003.7
20260507070033 49 303 7.0 10.4 0.01 0.95 0.23 94 1003.3
20260507064550 49 307 8.7 12.2 0.13 0.95 0.23 94 1003.4
20260507063034 49 282 8.7 14.8 0.22 0.95 0.23 95 1003.5
20260507061530 49 314 8.7 11.3 0.22 0.95 0.23 96 1003.3
20260507060030 49 319 6.1 13.0 0.21 0.94 0.22 97 1003.0
20260507054527 49 228 5.2 9.6 0.09 0.82 0.10 96 1004.2
20260507053030 49 202 4.3 8.7 0.00 0.73 0.01 96 1003.2
20260507051528 49 221 4.3 13.9 0.00 0.73 0.01 96 1003.2
20260507050039 50 196 4.3 20.0 0.01 0.73 0.01 96 1003.3
20260507044532 50 188 6.1 13.0 0.01 0.73 0.01 96 1003.0
20260507043030 50 188 6.1 11.3 0.01 0.73 0.01 96 1002.8
20260507041529 50 150 6.1 10.4 0.01 0.73 0.01 96 1003.2
20260507040030 50 169 5.2 15.6 0.00 0.72 0.00 96 1003.5
20260507034530 50 171 7.8 16.5 0.00 0.72 0.72 96 1003.5
20260507033028 51 167 7.8 15.6 0.03 0.72 0.72 95 1003.5
20260507031533 51 191 7.0 17.4 0.10 0.72 0.72 96 1003.7
20260507030035 52 216 9.6 21.7 0.12 0.72 0.72 95 1003.9
20260507024530 51 159 8.7 18.2 0.17 0.72 0.72 96 1004.1
20260507023030 51 195 7.0 13.9 0.20 0.69 0.69 96 1004.5
20260507021527 50 178 7.0 13.0 0.20 0.62 0.62 95 1004.7
20260507020029 50 208 6.1 13.9 0.22 0.60 0.60 95 1004.7
20260507014529 50 179 9.6 17.4 0.20 0.55 0.55 95 1005.0
20260507013028 51 171 7.0 17.4 0.17 0.49 0.49 95 1005.4
20260507011531 50 190 8.7 14.8 0.15 0.42 0.42 94 1005.7
20260507010043 51 158 9.6 15.6 0.16 0.38 0.38 94 1005.8
20260507004533 52 159 7.0 17.4 0.18 0.35 0.35 94 1006.1
20260507003029 53 205 12.2 27.8 0.20 0.31 0.31 94 1006.4
20260507001531 52 182 6.1 17.4 0.19 0.27 0.27 94 1006.6
20260507000028 52 185 8.7 16.5 0.15 0.22 0.22 94 1006.7
20260506234531 53 184 9.6 18.2 0.09 0.16 0.16 93 1006.9
20260506233030 53 180 10.4 20.0 0.05 0.11 0.11 93 1007.0
20260506231531 53 178 7.8 17.4 0.03 0.08 0.08 94 1007.0
20260506230039 51 173 8.7 20.0 0.04 0.07 0.07 92 1006.8
20260506224536 52 205 7.8 18.2 0.05 0.07 0.07 92 1007.0
20260506223030 52 181 6.1 13.9 0.05 0.06 0.06 93 1007.2
20260506221528 52 188 9.6 15.6 0.04 0.05 0.05 93 1007.3
20260506220036 52 163 11.3 16.5 0.03 0.03 0.03 92 1007.7
20260506214529 52 163 7.0 17.4 0.02 0.02 0.02 92 1007.9
20260506213030 52 161 9.6 20.0 0.01 0.01 0.01 91 1007.9
20260506211533 53 193 7.8 21.7 0.01 0.01 0.01 90 1007.4
20260506210031 53 154 11.3 18.2 0.00 0.00 0.00 89 1008.4
20260506204534 53 204 7.0 20.9 0.00 0.00 0.00 88 1008.2
20260506203031 54 163 6.1 12.2 0.00 0.00 0.00 86 1008.1
20260506201537 55 170 6.1 12.2 0.00 0.00 0.00 87 1007.9
20260506200030 54 220 7.8 16.5 0.00 0.00 0.00 86 1008.0
20260506194528 55 163 11.3 28.7 0.00 0.00 0.00 86 1008.0
20260506193030 55 175 8.7 20.0 0.00 0.00 0.00 86 1008.0
20260506191530 55 181 12.2 21.7 0.00 0.00 0.00 85 1008.3
20260506190030 55 184 9.6 19.1 0.00 0.00 0.00 86 1008.2
20260506184532 54 202 8.7 20.0 0.00 0.00 0.00 87 1008.5
20260506183032 53 136 7.8 16.5 0.00 0.00 0.00 86 1008.6
20260506181531 54 152 9.6 20.0 0.00 0.00 0.00 86 1008.8
20260506180032 55 219 7.0 22.6 0.00 0.00 0.00 86 1008.9
20260506174533 55 234 7.8 19.1 0.00 0.00 0.00 85 1009.1
20260506173030 55 203 10.4 20.9 0.00 0.00 0.00 85 1009.2
20260506171539 56 197 10.4 19.1 0.00 0.00 0.00 83 1009.4
20260506170029 56 199 9.6 20.9 0.00 0.00 0.00 83 1009.5
20260506164531 57 143 11.3 21.7 0.00 0.00 0.00 83 1009.4
20260506163030 57 257 12.2 21.7 0.00 0.00 0.00 83 1009.8
20260506161532 58 215 10.4 21.7 0.00 0.00 0.00 83 1009.9
20260506160031 58 198 7.8 15.6 0.00 0.00 0.00 82 1009.7
20260506154534 57 206 11.3 20.0 0.00 0.00 0.00 84 1009.7
20260506153030 56 161 9.6 19.1 0.00 0.00 0.00 84 1009.5
20260506151533 56 148 9.6 19.1 0.00 0.00 0.00 86 1009.8
20260506150033 55 189 6.1 15.6 0.00 0.00 0.00 88 1010.1
20260506144531 54 218 6.1 13.9 0.00 0.00 0.00 89 1010.4
20260506143032 54 182 7.0 14.8 0.00 0.00 0.00 90 1010.7
20260506141532 52 158 7.0 13.9 0.00 0.00 0.00 91 1010.6
20260506140034 51 146 10.4 15.6 0.00 0.00 0.00 93 1010.5